Theta_e
347 353 351 353 360 357 351 347 346 348 347 345 345 347 348 348 350 355 346 345 344 347 345 341 341 342 342 340 342 341 335 338 336 332 330 337 337 329 339 333 328 332 331 330 332 333 330 328 328
349 348 349 351 359 354 351 350 350 347 345 346 346 346 348 350 348 347 347 346 344 347 349 346 341 341 341 339 339 342 341 340 335 333 336 340 330 339 342 341 343 340 332 332 332 330 333 334 335
347 348 351 355 356 356 354 347 347 346 345 344 346 346 348 348 348 347 347 344 344 348 349 343 341 341 341 341 340 340 342 343 338 338 340 337 339 340 342 342 342 341 341 339 338 336 338 339 340
352 354 351 356 356 350 348 347 345 347 346 344 344 347 348 347 347 346 346 346 345 348 350 343 340 341 341 341 342 340 342 342 341 341 335 342 344 345 343 339 336 335 336 340 341 340 343 342 341
352 352 355 355 353 348 346 345 345 345 344 344 343 347 347 347 347 346 346 346 346 348 348 343 341 342 342 343 342 342 337 339 342 338 340 344 339 333 332 331 332 331 332 340 344 343 343 341 338
349 349 354 356 353 348 347 345 344 344 343 342 344 345 348 347 346 345 345 345 347 348 348 345 343 341 341 341 342 342 339 333 333 339 343 332 329 333 343 329 326 326 335 341 340 338 338 337 339
350 353 356 352 353 351 349 346 343 343 343 342 341 345 345 346 346 345 345 345 346 347 349 348 343 341 341 342 339 342 333 334 341 342 336 329 330 331 332 333 327 325 325 333 339 337 336 337 341
348 351 354 352 355 355 348 345 343 342 342 340 342 344 344 347 346 345 345 345 345 347 347 344 342 342 340 342 337 335 338 343 343 334 332 331 335 336 336 335 334 332 329 327 327 333 335 339 342
348 356 357 355 355 354 348 347 344 341 342 343 342 343 344 343 345 345 345 345 344 345 345 347 345 345 340 337 337 337 341 340 337 335 334 342 346 347 349 346 333 333 333 335 337 338 338 341 338
350 356 355 352 351 352 349 346 344 342 343 343 343 343 343 342 343 343 343 343 344 344 345 344 347 345 341 339 338 340 338 341 343 345 340 348 348 349 346 339 339 340 341 342 343 344 344 348 346
350 354 351 348 346 351 349 345 343 342 342 342 343 343 342 340 341 344 343 343 344 343 345 347 346 344 341 335 338 339 346 347 347 346 347 347 346 344 346 338 345 348 348 349 347 348 352 352 348
352 349 349 346 347 351 350 346 343 342 340 341 343 342 340 339 340 343 344 345 343 343 344 347 345 346 345 339 330 332 342 344 344 345 348 347 350 346 347 347 347 351 352 350 352 352 351 350 348
349 348 346 344 347 348 348 348 344 341 341 341 342 342 341 339 339 339 343 345 346 344 347 345 345 344 336 340 343 345 345 346 346 343 348 347 346 348 348 350 351 350 349 351 353 353 354 353 350
348 347 346 344 344 346 347 348 346 342 341 342 343 342 341 340 339 339 342 344 344 345 343 345 345 343 338 339 342 344 345 347 346 344 348 349 347 350 350 352 350 349 349 350 352 352 353 352 351
347 348 347 346 343 344 344 349 347 344 341 342 342 342 341 340 340 340 340 343 344 344 344 345 344 341 343 344 346 346 345 345 345 345 349 350 350 345 351 351 350 351 352 347 348 355 353 352 351
349 349 354 348 345 345 344 350 345 345 341 342 342 342 342 341 340 341 340 341 343 343 343 345 342 340 343 345 346 347 341 347 345 344 347 339 344 345 347 349 349 345 350 350 349 353 352 350 348
349 352 348 354 346 346 347 348 343 347 344 342 343 343 343 342 341 340 341 341 342 343 342 341 338 340 341 340 341 346 348 349 345 344 346 345 347 339 349 348 350 344 352 349 350 353 350 350 350
348 344 347 351 350 349 349 349 348 346 345 343 342 344 343 343 342 339 339 341 342 337 338 343 340 338 332 337 337 347 346 347 345 346 348 345 349 340 337 347 346 344 350 351 352 350 350 349 350
344 342 340 346 348 349 350 351 349 345 346 345 344 344 344 343 343 340 338 338 340 336 340 343 342 337 338 340 344 344 345 346 346 347 347 351 351 347 337 348 347 346 347 354 353 354 351 350 351
343 342 340 343 347 349 348 349 351 349 348 346 344 344 344 344 344 343 339 338 337 338 339 337 341 344 339 347 347 348 345 346 347 346 350 351 349 348 344 346 346 347 349 348 355 350 351 350 352
341 339 335 338 345 347 348 351 348 350 349 348 347 344 344 343 345 344 344 340 338 338 339 341 342 343 343 348 348 348 349 350 346 347 348 350 350 352 351 346 349 344 347 353 348 354 346 353 349
337 332 333 336 343 356 344 352 344 348 350 349 347 347 345 343 344 344 344 344 341 340 338 339 342 343 343 348 349 348 347 347 345 346 347 349 350 352 353 346 340 343 351 348 352 352 353 345 349
335 333 334 339 343 345 345 342 345 344 350 350 348 347 346 344 341 344 344 344 344 344 342 342 343 343 342 347 347 348 347 345 348 345 349 348 353 352 352 344 341 342 350 348 351 352 348 351 350
331 333 337 338 339 341 342 342 345 342 342 344 348 347 347 346 345 343 343 345 344 345 345 344 345 347 341 345 341 349 350 348 346 348 348 350 349 349 351 352 352 351 353 347 353 353 352 351 349
331 334 338 341 341 340 341 341 341 339 338 341 344 345 348 348 346 345 344 344 345 346 346 345 347 347 345 346 349 346 351 351 349 349 347 346 345 347 350 350 353 350 343 353 353 347 353 352 353
331 333 336 337 334 337 341 340 337 338 338 340 343 344 346 347 348 346 345 345 345 346 346 346 349 350 347 348 349 351 351 349 348 348 349 345 349 344 349 345 354 352 352 353 353 351 350 353 351
331 333 333 332 332 331 332 335 336 337 338 340 341 344 346 347 348 348 347 346 347 346 347 347 348 352 351 350 350 352 352 349 348 349 351 349 350 348 348 350 351 352 352 354 354 351 348 351 349
329 331 332 331 333 334 334 333 335 338 337 340 339 339 343 346 348 348 349 348 348 348 347 348 348 351 353 351 352 352 351 352 352 350 351 347 351 350 352 351 352 351 352 352 350 349 350 351 349
330 329 330 330 331 333 333 337 336 335 336 339 338 338 340 341 342 345 348 349 349 349 348 348 350 350 353 352 352 353 352 352 352 350 350 346 351 349 349 352 351 352 352 353 353 348 352 352 350
332 332 333 335 336 334 336 337 336 337 335 337 339 340 341 344 344 346 347 348 349 350 348 349 351 351 351 351 351 353 354 353 351 351 350 352 351 352 350 351 351 353 352 352 352 352 352 352 350
Wind_Speed
3 3 1 6 5 3 5 6 11 11 8 8 10 13 14 15 10 7 12 11 16 15 14 15 14 12 11 10 9 8 8 8 8 7 6 7 7 9 11 11 12 11 10 10 9 10 11 11 11
1 4 4 9 2 5 6 18 5 12 11 9 8 4 14 17 16 15 12 15 17 14 12 11 13 12 11 10 9 8 7 9 10 10 8 7 8 8 10 10 12 11 12 11 12 12 13 13 13
3 6 12 4 1 5 9 11 11 10 7 3 6 4 9 5 10 9 15 19 15 18 17 9 11 11 9 8 10 8 7 10 12 12 12 8 8 8 10 11 11 11 12 12 13 13 14 12 10
2 6 8 8 4 7 12 13 10 10 9 7 3 11 11 6 6 14 16 17 19 9 12 10 12 11 9 8 7 9 9 11 13 15 14 7 9 10 10 10 10 10 11 12 12 11 11 11 10
5 10 2 2 5 6 15 11 12 7 7 9 3 13 12 10 14 16 16 14 15 17 11 13 11 11 12 12 10 13 15 15 17 18 8 9 8 10 9 9 9 10 11 12 12 12 11 10 9
10 5 7 4 13 14 12 8 8 10 9 6 13 16 9 13 14 13 14 15 11 15 17 14 12 11 13 12 11 13 14 18 18 13 10 9 10 11 9 8 9 10 11 11 10 9 9 9 9
12 7 10 7 5 13 10 4 11 8 9 10 5 13 13 15 13 12 12 13 12 13 16 16 14 12 12 14 14 18 19 18 15 13 9 10 11 10 10 9 9 9 9 9 8 7 9 9 9
9 6 4 13 8 7 5 10 9 9 10 8 4 6 14 17 15 13 12 12 12 15 14 18 14 13 12 14 18 19 14 11 13 11 9 10 11 11 9 7 8 8 9 9 8 8 10 9 5
6 3 2 1 6 1 2 9 9 9 11 7 5 16 16 14 15 14 13 12 15 12 15 15 15 14 15 18 19 16 12 12 12 10 12 12 8 8 7 7 7 10 10 10 10 9 7 6 9
6 3 2 6 8 2 4 4 10 7 17 11 14 15 14 12 11 13 13 12 13 16 14 14 15 13 13 17 19 19 15 10 8 8 11 5 7 8 7 8 11 11 10 8 6 4 3 4 2
7 2 10 7 3 9 10 9 4 8 12 15 14 15 13 10 8 15 11 14 15 17 17 18 18 18 14 17 18 16 10 6 8 11 9 7 7 7 6 7 9 8 4 6 5 6 6 1 6
3 8 8 9 1 7 5 4 9 9 12 14 14 15 12 9 8 13 13 13 19 18 19 18 19 14 14 9 10 13 12 12 7 8 9 10 6 8 7 6 6 7 3 6 3 5 1 1 3
10 8 14 10 5 6 3 3 7 10 13 14 14 13 11 9 9 8 13 13 16 17 18 18 19 14 17 19 11 12 9 9 9 7 8 6 7 7 6 9 3 3 4 2 1 3 2 4 3
8 12 11 8 6 4 3 7 7 9 13 13 12 12 10 10 10 9 11 13 13 17 19 19 17 15 14 17 16 14 10 7 8 7 9 10 7 7 6 4 3 2 0 2 1 1 2 3 2
14 12 5 10 6 1 1 4 6 9 12 12 12 11 10 9 9 9 9 14 15 15 18 17 18 15 12 13 12 10 8 8 7 7 8 8 8 8 8 4 3 2 1 1 2 4 7 4 3
12 13 7 9 11 7 5 2 13 11 12 13 13 12 10 9 9 10 10 13 15 16 17 18 15 17 13 10 12 9 11 10 6 6 5 9 9 8 5 2 2 2 2 1 2 1 3 4 3
10 4 6 14 16 9 7 5 18 6 7 11 14 14 12 11 10 10 11 12 14 16 17 16 17 16 13 13 10 11 7 8 6 6 6 8 6 6 6 2 3 2 1 1 2 1 3 4 4
4 2 12 9 12 12 16 14 14 17 16 15 15 15 11 13 13 12 12 12 14 15 18 16 15 17 15 12 9 6 7 6 6 6 6 8 6 8 4 4 5 3 1 0 2 2 3 3 3
24 1 10 6 8 11 9 8 16 20 19 11 15 20 17 12 14 14 14 14 13 16 18 18 16 14 14 9 7 8 9 7 7 6 7 7 5 4 4 2 6 3 2 3 1 3 4 2 5
12 6 7 8 6 8 8 10 19 18 19 19 14 12 22 17 17 15 16 16 16 17 17 19 17 15 16 9 12 9 8 7 8 7 5 5 5 4 2 6 3 5 4 4 3 2 2 2 4
8 4 2 2 8 11 7 6 13 19 19 18 19 18 14 16 24 19 17 18 18 19 19 19 19 17 14 11 10 10 6 4 7 7 5 5 4 3 3 5 7 5 7 6 2 1 3 6 5
8 5 4 4 8 4 6 4 19 15 16 15 18 18 20 18 18 19 21 19 20 20 20 20 19 18 15 15 11 10 9 11 8 7 7 5 5 4 2 2 5 6 4 4 0 1 1 4 3
8 1 8 6 14 14 12 4 11 13 17 15 17 18 19 24 21 20 21 23 20 19 20 21 20 20 18 16 15 12 10 9 5 6 8 9 6 6 4 2 5 5 8 7 4 1 2 1 3
4 9 8 11 12 10 5 4 8 4 6 10 15 16 18 19 27 22 20 25 21 21 19 19 21 21 20 18 18 16 11 12 11 7 8 7 7 7 8 4 3 5 4 3 2 2 2 3 3
11 16 11 6 8 1 3 5 8 8 7 5 8 7 15 17 20 21 20 18 21 23 21 19 20 21 20 20 17 17 14 14 9 11 9 10 9 11 12 8 6 3 6 4 5 4 3 3 3
13 19 11 7 6 5 11 4 2 12 9 7 4 3 4 12 18 21 24 22 20 21 23 21 21 21 21 20 19 17 15 13 12 12 11 14 9 8 11 8 8 7 6 3 4 3 3 9 3
11 11 15 12 8 7 8 7 9 10 9 6 8 4 5 4 12 17 20 23 23 24 25 25 23 22 21 20 19 18 17 17 11 12 9 12 8 6 9 7 8 8 6 6 7 3 5 7 3
16 8 12 9 6 8 2 3 3 9 7 10 8 8 7 5 4 9 16 19 23 23 27 26 27 24 22 21 19 18 18 17 15 13 15 13 7 11 9 7 7 7 9 9 12 7 8 8 6
8 11 11 14 11 8 6 5 10 6 3 7 5 1 4 2 2 4 8 14 20 23 26 29 28 27 23 22 21 19 17 17 17 15 13 15 13 13 12 9 10 9 8 8 9 9 7 7 6
10 15 13 8 10 11 9 4 8 8 3 4 2 5 3 2 3 4 7 11 15 23 26 27 27 29 27 24 24 20 18 17 17 17 15 15 13 12 13 11 11 10 10 9 8 8 10 7 6
Wind_Direction
311 39 270 246 257 109 76 80 70 53 60 46 59 46 82 45 34 97 139 156 148 149 151 139 142 132 130 122 122 120 134 136 129 123 111 94 100 119 106 103 110 117 121 120 123 116 114 114 111
131 252 248 264 214 2 96 77 80 55 58 72 83 72 78 65 81 118 137 151 149 150 150 152 142 138 132 121 114 122 136 144 142 128 121 115 123 117 119 118 115 114 115 116 116 119 114 111 110
150 248 269 238 217 204 96 108 99 82 69 39 102 79 50 71 66 126 138 152 145 153 155 167 156 155 148 133 125 123 133 139 143 138 127 119 133 139 123 123 119 124 125 122 117 122 117 116 110
237 241 248 255 209 93 114 94 108 112 100 45 81 88 92 86 99 129 134 149 150 153 137 172 154 159 162 152 146 140 129 140 145 145 123 135 138 126 125 127 129 129 129 125 123 127 117 110 106
268 267 307 269 146 96 88 86 70 81 74 81 317 86 88 92 120 130 132 140 159 143 146 150 150 148 139 139 132 133 113 125 156 135 129 149 142 132 130 137 141 132 133 132 124 116 116 109 100
259 252 294 320 291 101 97 98 96 84 80 99 103 110 108 122 127 130 130 137 150 136 139 138 142 149 157 149 133 143 127 121 121 133 146 151 139 134 127 137 131 132 135 139 125 114 111 101 96
259 297 269 258 242 116 115 80 73 85 95 82 139 92 121 127 131 134 134 128 143 140 134 134 137 143 152 149 130 138 137 129 133 134 147 145 139 135 139 131 120 124 134 138 134 118 106 103 96
279 276 303 203 164 88 92 88 75 67 79 101 23 145 147 145 151 148 140 144 140 135 143 137 135 129 133 160 149 132 130 127 132 131 146 139 129 118 102 99 110 111 105 109 122 120 118 122 105
265 294 262 43 133 48 110 115 82 98 118 68 83 107 119 140 146 144 146 151 157 160 148 148 147 138 145 143 143 132 125 131 133 146 132 119 130 96 77 143 109 107 112 112 121 133 137 124 59
279 18 64 61 85 266 234 123 109 149 119 117 105 111 124 137 153 146 160 168 165 162 160 150 148 133 139 156 149 135 131 122 123 148 143 120 158 164 164 126 107 103 111 117 116 105 97 141 265
14 33 120 103 67 260 220 110 108 6 113 140 133 135 137 138 145 142 163 170 171 164 155 154 147 155 139 139 161 142 140 153 170 177 142 174 157 136 130 121 90 73 62 104 47 40 130 241 263
116 110 118 131 154 325 71 141 88 64 85 121 129 138 136 131 144 143 152 158 166 169 169 158 151 148 144 155 138 124 136 158 161 173 172 169 159 162 155 143 126 155 357 121 320 119 213 353 346
115 116 116 128 106 22 76 340 111 110 118 123 131 139 139 130 127 133 145 152 164 162 156 165 153 159 169 149 158 186 165 177 162 165 170 186 170 163 142 162 144 95 145 118 67 20 359 350 349
107 132 131 151 133 60 33 309 123 127 136 133 144 144 144 133 133 139 141 153 158 155 158 160 160 161 158 154 146 138 173 170 153 172 183 169 158 154 172 147 141 138 160 131 68 297 16 4 39
117 124 142 128 165 69 29 239 125 159 155 153 143 151 137 136 136 145 154 154 155 157 154 161 161 162 163 162 133 153 152 162 166 183 176 180 142 184 166 175 142 162 236 352 337 12 353 11 29
160 155 154 161 170 135 128 31 278 187 171 174 155 148 152 148 143 141 152 156 159 158 159 166 170 162 172 166 162 158 171 149 163 173 198 186 181 181 152 169 213 197 58 137 209 340 356 8 7
133 212 131 147 190 155 177 168 260 211 218 192 172 162 162 151 148 146 151 160 161 163 163 163 182 174 177 185 177 167 194 147 175 173 201 201 195 193 161 183 252 173 104 147 192 322 37 350 348
38 130 133 170 167 187 182 167 199 199 207 203 198 167 172 164 162 157 153 153 176 181 164 163 164 193 185 181 175 155 190 172 178 186 197 234 221 219 206 247 232 176 214 228 209 189 347 1 338
275 41 97 88 142 201 199 139 184 188 201 214 214 172 190 159 159 163 161 156 158 160 162 174 170 191 189 183 180 185 190 186 189 187 219 212 213 217 225 239 260 206 194 229 212 305 325 329 334
242 266 94 132 162 227 170 181 179 186 203 198 209 216 179 184 172 166 173 171 170 171 173 168 176 186 179 192 193 190 192 195 212 190 194 195 210 219 296 200 215 224 219 256 235 242 240 307 329
247 308 336 52 181 220 237 327 171 175 198 204 203 204 217 205 187 175 182 184 185 184 183 184 184 192 191 189 198 211 198 180 207 200 222 216 206 210 234 209 169 209 167 227 220 303 303 335 325
267 48 276 232 242 356 221 115 319 169 188 200 206 212 202 192 225 195 182 191 193 195 195 196 197 198 199 194 201 208 214 208 203 212 204 204 204 207 237 228 225 185 206 199 253 216 174 272 355
280 317 275 197 260 219 176 244 216 163 169 185 205 207 215 188 207 211 207 184 194 196 201 202 204 206 196 206 192 218 212 217 194 211 198 200 218 196 210 211 191 167 175 196 186 298 239 76 306
306 240 231 240 255 259 150 260 67 24 97 115 170 197 202 207 198 210 216 188 191 194 199 203 204 207 206 206 211 205 215 209 211 222 198 200 217 216 206 212 190 209 230 225 233 224 319 321 261
219 238 228 222 264 328 133 213 123 160 120 65 117 152 188 205 215 201 215 213 188 194 193 201 203 206 206 204 207 211 211 217 218 192 214 212 204 193 215 208 203 218 214 224 248 271 241 265 282
214 255 278 299 285 96 155 248 68 81 84 117 121 127 167 201 208 214 209 206 213 204 197 199 201 206 206 205 206 209 207 215 223 224 230 224 223 201 214 239 213 216 232 229 265 279 271 212 267
249 223 293 318 291 250 277 127 159 159 150 168 164 155 147 158 200 209 220 218 214 210 206 203 202 206 205 208 209 209 210 205 215 220 208 216 240 203 196 202 207 210 223 231 252 231 258 285 269
268 331 236 217 234 263 207 205 169 144 171 181 173 189 149 149 190 219 217 224 222 215 211 208 206 210 206 204 211 212 219 216 213 213 226 198 228 219 176 195 218 217 227 234 255 241 249 250 246
178 234 251 284 312 320 289 69 60 100 79 152 182 228 136 187 195 223 236 229 227 216 213 208 208 207 208 207 210 209 214 219 217 219 224 221 222 222 221 216 228 232 232 238 249 236 244 251 240
287 298 295 272 217 231 282 10 70 102 125 139 216 174 243 268 283 259 252 235 227 215 208 208 204 208 208 210 211 212 211 212 216 215 217 219 213 218 224 222 225 221 228 243 246 244 264 203 252